Radiation Dose at Monitoring Post of Fukushima Daini Nuclear Power Station
Date,Time,MP-1(microSv/h),MP-2(microSv/h),MP-3(microSv/h),MP-4(microSv/h),MP-5(microSv/h),MP-6(microSv/h),MP-7(microSv/h),Wind Direction,Wind Velocity(m/s),Rain
2019/10/21,00:00,0.182,0.160,0.271,0.254,0.261,0.137,0.085,-,CALM,No
2019/10/21,00:10,0.182,0.160,0.271,0.254,0.259,0.137,0.085,north,1.5,No
2019/10/21,00:20,0.182,0.161,0.271,0.254,0.259,0.139,0.085,north-northwest,3.1,No
2019/10/21,00:30,0.182,0.160,0.272,0.254,0.260,0.137,0.085,north-northwest,3.3,No
2019/10/21,00:40,0.181,0.161,0.269,0.254,0.258,0.137,0.085,north,3.5,No
2019/10/21,00:50,0.182,0.160,0.273,0.254,0.260,0.136,0.085,north-northwest,3.4,No
2019/10/21,01:00,0.182,0.161,0.270,0.254,0.259,0.137,0.085,north-northwest,3.8,No
2019/10/21,01:10,0.181,0.162,0.273,0.255,0.258,0.136,0.085,north-northwest,3.9,No
2019/10/21,01:20,0.181,0.160,0.272,0.253,0.258,0.138,0.085,north-northwest,3.7,No
2019/10/21,01:30,0.182,0.161,0.270,0.254,0.257,0.137,0.084,north-northwest,3.6,No
2019/10/21,01:40,0.182,0.161,0.271,0.253,0.259,0.138,0.085,north-northwest,2.5,No
2019/10/21,01:50,0.181,0.160,0.271,0.252,0.258,0.136,0.085,northwest,2.7,No
2019/10/21,02:00,0.182,0.160,0.271,0.254,0.260,0.137,0.086,north-northwest,3.0,No
2019/10/21,02:10,0.181,0.160,0.271,0.254,0.259,0.136,0.084,north-northeast,3.2,No
2019/10/21,02:20,0.181,0.160,0.270,0.254,0.260,0.137,0.085,north-northeast,1.3,No
2019/10/21,02:30,0.182,0.161,0.272,0.254,0.260,0.137,0.086,north,1.0,No
2019/10/21,02:40,0.181,0.160,0.272,0.254,0.258,0.137,0.085,north,0.7,No
2019/10/21,02:50,0.182,0.161,0.272,0.255,0.261,0.137,0.085,north-northeast,1.2,No
2019/10/21,03:00,0.182,0.160,0.271,0.254,0.258,0.136,0.084,north,2.0,No
2019/10/21,03:10,0.180,0.159,0.270,0.254,0.260,0.137,0.085,north-northeast,0.8,No
2019/10/21,03:20,0.182,0.160,0.271,0.254,0.258,0.137,0.084,north,1.6,No
2019/10/21,03:30,0.181,0.159,0.270,0.253,0.260,0.137,0.085,north,2.9,No
2019/10/21,03:40,0.183,0.161,0.271,0.254,0.260,0.137,0.084,north-northwest,2.1,No
2019/10/21,03:50,0.183,0.161,0.272,0.254,0.258,0.136,0.085,northwest,2.5,No
2019/10/21,04:00,0.182,0.160,0.271,0.254,0.262,0.137,0.086,north-northwest,2.7,No
2019/10/21,04:10,0.182,0.161,0.273,0.255,0.259,0.138,0.085,north-northwest,2.9,No
2019/10/21,04:20,0.181,0.160,0.270,0.254,0.259,0.136,0.085,north-northwest,3.8,No
2019/10/21,04:30,0.181,0.161,0.272,0.254,0.260,0.138,0.085,north-northwest,3.6,No
2019/10/21,04:40,0.181,0.160,0.273,0.255,0.259,0.138,0.085,northwest,3.5,No
2019/10/21,04:50,0.181,0.160,0.270,0.255,0.260,0.137,0.085,north-northwest,3.5,No
2019/10/21,05:00,0.182,0.161,0.271,0.255,0.258,0.138,0.085,north-northwest,3.7,No
2019/10/21,05:10,0.181,0.161,0.270,0.255,0.260,0.137,0.085,north-northwest,3.4,No
2019/10/21,05:20,0.182,0.160,0.271,0.254,0.261,0.137,0.085,north-northwest,3.6,No
2019/10/21,05:30,0.181,0.161,0.272,0.255,0.257,0.137,0.085,northwest,3.6,No
2019/10/21,05:40,0.182,0.160,0.271,0.254,0.260,0.136,0.085,northwest,3.3,No
2019/10/21,05:50,0.182,0.160,0.271,0.253,0.259,0.137,0.084,northwest,3.1,No
2019/10/21,06:00,0.181,0.161,0.270,0.255,0.259,0.137,0.085,northwest,3.2,No
2019/10/21,06:10,0.182,0.160,0.271,0.254,0.260,0.137,0.085,north-northwest,2.5,No
2019/10/21,06:20,0.182,0.161,0.271,0.255,0.258,0.137,0.084,north-northwest,2.7,No
2019/10/21,06:30,0.181,0.161,0.272,0.254,0.259,0.138,0.085,north-northwest,2.8,No
2019/10/21,06:40,0.182,0.161,0.270,0.255,0.259,0.137,0.086,northwest,2.6,No
2019/10/21,06:50,0.182,0.161,0.272,0.255,0.259,0.137,0.085,northwest,3.2,No
2019/10/21,07:00,0.182,0.160,0.270,0.253,0.260,0.138,0.085,northwest,2.8,No
2019/10/21,07:10,0.182,0.161,0.272,0.253,0.257,0.137,0.085,north-northwest,3.5,No
2019/10/21,07:20,0.181,0.160,0.271,0.254,0.260,0.137,0.085,north-northwest,2.2,No
2019/10/21,07:30,0.183,0.160,0.269,0.253,0.257,0.137,0.085,northwest,1.4,No
2019/10/21,07:40,0.181,0.161,0.272,0.255,0.259,0.137,0.084,northwest,1.6,No
2019/10/21,07:50,0.182,0.160,0.270,0.253,0.258,0.136,0.085,north,1.3,No
2019/10/21,08:00,0.181,0.159,0.270,0.256,0.259,0.136,0.085,north-northwest,1.6,No
2019/10/21,08:10,0.182,0.160,0.271,0.252,0.258,0.137,0.084,north-northwest,1.9,No
2019/10/21,08:20,0.181,0.159,0.271,0.254,0.260,0.137,0.085,northwest,2.9,No
2019/10/21,08:30,0.181,0.161,0.271,0.252,0.258,0.138,0.084,north-northwest,3.0,No
2019/10/21,08:40,0.181,0.159,0.270,0.255,0.261,0.137,0.085,northwest,2.4,No
2019/10/21,08:50,0.183,0.160,0.272,0.253,0.258,0.137,0.084,north,2.8,No
2019/10/21,09:00,0.181,0.160,0.271,0.255,0.261,0.137,0.084,north-northwest,2.5,No
2019/10/21,09:10,0.180,0.161,0.272,0.254,0.259,0.138,0.085,north,2.8,No
2019/10/21,09:20,0.181,0.160,0.270,0.254,0.259,0.137,0.084,north,2.4,No
2019/10/21,09:30,0.180,0.160,0.271,0.255,0.260,0.138,0.085,north,2.3,No
2019/10/21,09:40,0.182,0.161,0.271,0.253,0.257,0.137,0.085,north,2.7,No
2019/10/21,09:50,0.181,0.159,0.272,0.254,0.258,0.138,0.084,north,2.7,No
2019/10/21,10:00,0.182,0.160,0.271,0.254,0.259,0.137,0.084,north,2.7,No
2019/10/21,10:10,0.182,0.159,0.270,0.253,0.257,0.136,0.085,north,3.0,No
2019/10/21,10:20,0.180,0.161,0.272,0.254,0.259,0.137,0.084,north,3.2,No
2019/10/21,10:30,0.183,0.161,0.270,0.254,0.261,0.137,0.085,north-northeast,4.1,No
2019/10/21,10:40,0.181,0.159,0.273,0.253,0.258,0.136,0.086,north,4.6,No
2019/10/21,10:50,0.182,0.160,0.270,0.255,0.259,0.138,0.085,north,5.2,No
2019/10/21,11:00,0.182,0.160,0.272,0.255,0.260,0.137,0.085,north,6.3,No
2019/10/21,11:10,0.182,0.161,0.270,0.253,0.257,0.136,0.085,north,5.4,No
2019/10/21,11:20,0.183,0.162,0.272,0.254,0.260,0.138,0.084,north,5.6,No
2019/10/21,11:30,0.180,0.160,0.272,0.255,0.260,0.136,0.086,north,5.1,No
2019/10/21,11:40,0.182,0.162,0.269,0.253,0.257,0.137,0.084,north,5.0,No
2019/10/21,11:50,0.181,0.160,0.272,0.256,0.260,0.137,0.084,north,5.5,No
2019/10/21,12:00,0.182,0.161,0.269,0.255,0.260,0.137,0.085,north,5.5,No
2019/10/21,12:10,0.182,0.161,0.271,0.252,0.257,0.137,0.085,north,5.3,No
2019/10/21,12:20,0.181,0.161,0.272,0.256,0.260,0.139,0.085,north,5.0,No
2019/10/21,12:30,0.183,0.162,0.272,0.254,0.260,0.137,0.085,north-northeast,5.3,No
2019/10/21,12:40,0.181,0.161,0.274,0.253,0.257,0.138,0.084,north-northeast,5.7,No
2019/10/21,12:50,0.183,0.161,0.271,0.256,0.261,0.138,0.085,north,4.6,No
2019/10/21,13:00,0.182,0.161,0.273,0.254,0.260,0.137,0.086,north-northeast,5.1,No
2019/10/21,13:10,0.183,0.161,0.270,0.254,0.257,0.138,0.085,north-northeast,5.4,No
2019/10/21,13:20,0.182,0.161,0.270,0.256,0.261,0.137,0.084,north-northeast,5.1,No
2019/10/21,13:30,0.181,0.160,0.272,0.255,0.259,0.137,0.085,north-northeast,5.6,No
2019/10/21,13:40,0.184,0.162,0.271,0.255,0.258,0.138,0.085,north-northeast,4.8,No
2019/10/21,13:50,0.181,0.160,0.272,0.256,0.261,0.138,0.085,north-northeast,4.6,No
2019/10/21,14:00,0.182,0.161,0.269,0.253,0.259,0.137,0.084,north-northeast,3.7,No
2019/10/21,14:10,0.182,0.161,0.272,0.257,0.260,0.138,0.085,north-northeast,3.4,No
2019/10/21,14:20,0.183,0.163,0.270,0.255,0.260,0.138,0.086,northeast,3.5,No
2019/10/21,14:30,0.183,0.161,0.272,0.256,0.259,0.138,0.084,northeast,3.2,No
2019/10/21,14:40,0.182,0.161,0.273,0.255,0.261,0.138,0.086,north-northeast,4.8,No
2019/10/21,14:50,0.183,0.161,0.272,0.254,0.258,0.138,0.085,north,2.5,No
2019/10/21,15:00,0.181,0.162,0.273,0.256,0.261,0.138,0.085,north,2.3,No
2019/10/21,15:10,0.183,0.161,0.271,0.255,0.259,0.137,0.085,north-northwest,1.2,No
2019/10/21,15:20,0.181,0.160,0.273,0.257,0.260,0.139,0.085,north,2.5,No
2019/10/21,15:30,0.183,0.161,0.271,0.254,0.260,0.137,0.085,north-northwest,2.7,No
2019/10/21,15:40,0.182,0.160,0.273,0.256,0.259,0.138,0.085,north-northwest,1.9,No
2019/10/21,15:50,0.183,0.160,0.271,0.255,0.261,0.137,0.084,north-northwest,1.4,No
2019/10/21,16:00,0.182,0.161,0.272,0.257,0.260,0.139,0.085,northwest,2.8,No
2019/10/21,16:10,0.183,0.161,0.271,0.255,0.261,0.137,0.085,north-northwest,2.3,No
2019/10/21,16:20,0.182,0.161,0.273,0.256,0.260,0.139,0.086,north-northwest,3.1,No
2019/10/21,16:30,0.183,0.161,0.271,0.254,0.260,0.138,0.085,north-northwest,3.9,No
2019/10/21,16:40,0.181,0.162,0.273,0.257,0.259,0.138,0.086,west-northwest,1.9,No
2019/10/21,16:50,0.183,0.161,0.272,0.254,0.261,0.137,0.085,northwest,3.4,No
2019/10/21,17:00,0.182,0.161,0.272,0.255,0.260,0.139,0.086,northwest,3.1,No
2019/10/21,17:10,0.183,0.161,0.272,0.255,0.261,0.139,0.085,northwest,2.7,No
2019/10/21,17:20,0.181,0.161,0.272,0.255,0.259,0.138,0.086,northwest,2.2,No
2019/10/21,17:30,0.183,0.161,0.273,0.257,0.260,0.138,0.085,north-northwest,3.1,No
2019/10/21,17:40,0.182,0.161,0.271,0.256,0.258,0.138,0.085,northwest,2.7,No
2019/10/21,17:50,0.184,0.162,0.273,0.256,0.260,0.138,0.085,northwest,2.7,No
2019/10/21,18:00,0.182,0.161,0.272,0.255,0.259,0.139,0.085,northwest,2.4,No
2019/10/21,18:10,0.183,0.161,0.274,0.258,0.261,0.138,0.085,northwest,2.6,No
2019/10/21,18:20,0.182,0.161,0.271,0.254,0.259,0.139,0.086,northwest,2.3,No
2019/10/21,18:30,0.183,0.162,0.274,0.256,0.262,0.138,0.084,north-northwest,2.8,No
2019/10/21,18:40,0.181,0.162,0.272,0.255,0.260,0.138,0.085,northwest,2.3,No
2019/10/21,18:50,0.184,0.162,0.273,0.256,0.261,0.137,0.086,north-northwest,2.8,No
2019/10/21,19:00,0.182,0.161,0.271,0.254,0.259,0.139,0.085,north-northwest,2.6,No
2019/10/21,19:10,0.184,0.160,0.273,0.257,0.261,0.138,0.085,northwest,2.4,No
2019/10/21,19:20,0.182,0.162,0.272,0.255,0.260,0.138,0.085,northwest,3.4,No
2019/10/21,19:30,0.183,0.161,0.272,0.257,0.262,0.138,0.085,north-northwest,2.8,No
2019/10/21,19:40,0.182,0.161,0.272,0.255,0.259,0.137,0.085,north-northwest,2.7,No
2019/10/21,19:50,0.183,0.160,0.272,0.257,0.261,0.138,0.085,north-northwest,3.5,No
2019/10/21,20:00,0.182,0.162,0.272,0.255,0.260,0.139,0.085,north-northwest,4.0,No
2019/10/21,20:10,0.184,0.161,0.272,0.255,0.261,0.138,0.086,north-northwest,4.3,No
2019/10/21,20:20,0.182,0.162,0.274,0.256,0.260,0.137,0.085,north-northwest,3.4,No
2019/10/21,20:30,0.183,0.162,0.272,0.255,0.260,0.139,0.085,north-northwest,3.3,No
2019/10/21,20:40,0.183,0.162,0.273,0.258,0.261,0.139,0.084,north-northwest,3.8,No
2019/10/21,20:50,0.183,0.162,0.272,0.255,0.259,0.139,0.084,north-northwest,3.3,No
2019/10/21,21:00,0.183,0.162,0.272,0.256,0.261,0.138,0.086,north-northwest,3.7,No
2019/10/21,21:10,0.183,0.161,0.272,0.256,0.260,0.138,0.086,north-northwest,3.7,No
2019/10/21,21:20,0.182,0.161,0.274,0.257,0.261,0.138,0.086,north-northwest,4.0,No
2019/10/21,21:30,0.184,0.162,0.272,0.255,0.259,0.138,0.086,north-northwest,3.1,No
2019/10/21,21:40,0.182,0.161,0.272,0.257,0.262,0.138,0.086,north-northwest,3.6,No
2019/10/21,21:50,0.184,0.161,0.272,0.256,0.259,0.138,0.085,north-northwest,3.1,No
2019/10/21,22:00,0.183,0.161,0.272,0.256,0.262,0.138,0.085,north-northwest,2.9,No
2019/10/21,22:10,0.182,0.160,0.273,0.256,0.259,0.138,0.086,west-northwest,2.6,No
2019/10/21,22:20,0.182,0.162,0.273,0.255,0.261,0.138,0.085,northwest,3.0,No
2019/10/21,22:30,0.183,0.162,0.274,0.256,0.260,0.139,0.085,north-northwest,3.4,No
2019/10/21,22:40,0.182,0.162,0.272,0.255,0.262,0.138,0.084,north-northwest,3.2,No
2019/10/21,22:50,0.183,0.161,0.273,0.258,0.260,0.139,0.085,north,2.4,Yes
2019/10/21,23:00,0.183,0.162,0.272,0.254,0.260,0.138,0.085,north-northwest,1.4,Yes
2019/10/21,23:10,0.182,0.161,0.275,0.256,0.260,0.138,0.085,north-northwest,2.5,Yes
2019/10/21,23:20,0.183,0.161,0.273,0.255,0.261,0.138,0.085,northwest,2.3,Yes
2019/10/21,23:30,0.183,0.163,0.273,0.258,0.261,0.139,0.086,north-northwest,3.9,Yes
2019/10/21,23:40,0.183,0.162,0.274,0.255,0.262,0.139,0.085,northwest,2.9,Yes
2019/10/21,23:50,0.183,0.163,0.272,0.259,0.261,0.139,0.085,north-northwest,2.9,Yes
